Starlink 11185

operational
NORAD ID: 62588 Int'l Des: 2025-008 Owner: SPXS Country: US Constellation: starlink
LEOCIRCULAR

Über Starlink 11185

Beschreibung wird geladen...

Live-Position

3D-Globus wird geladen...

Nächste Überflüge

Höhenverlauf

Altitude vs Time

uPlot chart will show altitude changes over time

Zweizeiliger Elementsatz

1 62588U 25008B 25259.26028615 .00231628 00000-0 17493-2 0 9995
2 62588 43.0017 97.3347 0001661 294.7837 65.2858 15.70968531 38687
Epoch: 16. Sept. 2025 • Age: 39 hours

Aktueller Status

Höhe 354.2 km
Geschwindigkeit 7.70 km/s
Subsatellitenpunkt 19.21°N, 66.65°W
Startdatum 13. Jan. 2025
Alter 0.6 years
Typ internet

Technische Details

Klassifizierung Payload
Masse 960.00 kg
Trockenmasse 910.00 kg
Gesamtmasse 960.00 kg
Länge 0.30 m
Durchmesser 4.10 m
Spannweite 29.00 m
Form Box + pan
Hersteller SPXS
Bus-Typ Starlink V2MD
Phasenstatus In Orbit
Besitzer/Staat SPXS/US

Große Konstellationen

Loading constellations...